Terminal Aerodrome Forecast
Issued by NWS Miami, FL

Current Version | Previous Version | Text Only | Print | Product List | Glossary On
Versions: 1 2 3 4 5 6 7 8 9 10 11 12 13 14 15 16 17 18 19 20 21 22 23 24 25 26 27 28 29 30 31 32 33 34 35 36 37 38 39 40 41 42 43 44 45 46 47 48 49 50
000
FTUS42 KMFL 290018 AAA
TAFAPF
TAF AMD
KAPF 290018Z 2900/2924 00000KT P6SM SCT025 OVC070
     FM290500 09003KT P6SM FEW030
     FM291800 24005KT P6SM VCSH SCT035 SCT080=

USA.gov is the U.S. government's official web portal to all federal, state and local government web resources and services.